Location: Ravensburg
(47.7866°N, 9.6124°E)
Time: 23:06:04
(UTC+02:00)

AO-85 - Pass Details

Date: 13 March 2026
Orbit: 507 x 686 km, 64.8° (Epoch: 11 April)

Event Time Altitude Azimuth Distance (km) Brightness Sun altitude
Exits shadow 04:45:47 16° 179° (S) 1,476 ? -19.6°
Maximum altitude 04:48:32 35° 120° (ESE) 870 ? -19.2°
Drops below altitude 10° 04:52:07 10° 54° (NE) 1,754 ? -18.6°
Sets 04:54:23 0° 45° (NE) 2,632 ? -18.2°
